Location: Newark
(48.3453°N, 0.5589°E)
Time: 21:15:15
(UTC+00:00)

A-11 Canister half - Pass Details

Date: 12 December 2019
Orbit: 1516 x 1683 km, 47.2° (Epoch: 18 January)

Event Time Altitude Azimuth Distance (km) Brightness Sun altitude
Rises 09:17:31 0° 181° (S) 4,696 12.5 10.7°
Reaches altitude 10° 09:21:56 10° 162° (SSE) 3,745 12.9 11.2°
Maximum altitude 09:27:29 17° 126° (SE) 3,241 12.3 11.7°
Drops below altitude 10° 09:33:08 10° 89° (E) 3,834 11.6 12.2°
Sets 09:37:42 0° 72° (ENE) 4,856 11.8 12.6°
